Regional Weather Roundup
Issued by NWS Sioux Falls, SD

Home | Current Version | Previous Version | Text Only | Print | Product List | Glossary Off
Versions: 1 2 3 4 5 6 7 8 9 10 11 12 13 14 15 16 17 18 19 20 21 22 23 24 25 26 27 28 29 30 31 32 33 34 35 36 37 38 39 40 41 42 43 44 45 46 47 48 49 50

000
ASUS43 KFSD 031210
RWRFSD

WEATHER ROUNDUP FOR SE SOUTH DAKOTA/SW MINNESOTA/NW IOWA
NATIONAL WEATHER SERVICE SIOUX FALLS SD
700 AM CDT SUN MAY 03 2015

NOTE: "FAIR" INDICATES FEW OR NO CLOUDS BELOW 12,000 FEET WITH NO
SIGNIFICANT WEATHER AND OR OBSTRUCTIONS TO VISIBILITY.


SDZ038>040-050-052>070-031300-
SOUTHEAST SOUTH DAKOTA

CITY           SKY/WX    TMP DP  RH WIND       PRES   REMARKS
BROOKINGS      CLEAR     57  54  88 S9        29.70F
CHAMBERLAIN    PTCLDY    52  49  92 NW3       29.69S
6HR MIN TEMP:  47; 6HR MAX TEMP:  69;

HURON          PTCLDY    50  49  96 NW5       29.69R FOG
6HR MIN TEMP:  50; 6HR MAX TEMP:  68;

MADISON        FAIR      59  57  94 SW6       29.71S
MITCHELL       MOCLDY    63  54  72 S10       29.69R
6HR MIN TEMP:  56; 6HR MAX TEMP:  66;

SIOUX FALLS    MOCLDY    58  53  84 CALM      29.72R
6HR MIN TEMP:  52; 6HR MAX TEMP:  64;

WINNER         FAIR      50  39  66 W3        29.70R
YANKTON        PTCLDY    64  52  63 SW14      29.67R
$$

MNZ071-072-080-081-089-090-097-098-031300-
SOUTHWEST MINNESOTA

CITY           SKY/WX    TMP DP  RH WIND       PRES   REMARKS
FAIRMONT       CLOUDY    54  46  76 S10       29.75S
JACKSON        MOCLDY    55  50  82 S9        29.75S
LUVERNE        CLEAR     54  50  87 CALM      29.74R
MARSHALL       PTCLDY    55  46  71 SE9       29.69F
6HR MIN TEMP:  54; 6HR MAX TEMP:  63;

MONTEVIDEO     PTCLDY    55  52  88 S8        29.73R
REDWOOD FALLS  MOCLDY    54  50  86 E8        29.73R
TRACY          PTCLDY    55  51  87 E8        29.72R
WORTHINGTON    PTCLDY    52  46  82 S6        29.75S
$$

IAZ001>003-012>014-020>022-031-032-NEZ013-014-SDZ071-031300-
NORTHWEST IOWA

CITY           SKY/WX    TMP DP  RH WIND       PRES   REMARKS
CHEROKEE       CLEAR     51  51 100 CALM      29.73R
DENISON        CLEAR     59  57  94 VRB3      29.73R
ESTHERVILLE    MOCLDY    49  48  97 S7        29.75R
LE MARS        CLEAR     59  52  77 S6G13     29.72R
ORANGE CITY    CLEAR     57  48  72 CALM      29.73R
SHELDON        CLEAR     50  50 100 E5        29.73R
SIOUX CITY     CLEAR     58  51  78 E9        29.71R
6HR MIN TEMP:  56; 6HR MAX TEMP:  66;

SPENCER        PTCLDY    50  48  93 E7        29.75R FOG
6HR MIN TEMP:  50; 6HR MAX TEMP:  60;

STORM LAKE     CLEAR     55  52  88 S12       29.75S
$$

ABBREVIATIONS USED IN REMARKS
   TC - TEMPERATURE IN CELSIUS
  WCI - WIND CHILL INDEX
   HX - HEAT INDEX
  VSB - VISIBILITY



USA.gov is the U.S. government's official web portal to all federal, state and local government web resources and services.